FAB2590 SBBR-SBDN

Flight info

Callsign FAB2590
Flight time 1h 7m
Altitude 38000
Route KUKOL UM532 GEKEM
Aircraft E190/M-SDE3GILORVW/S

Departure

Time 2026-04-25 22:33
Airport Presidente Juscelino Kubitschek International Airport (SBBR)

Arrival

Time 2026-04-25 23:40
Airport Presidente Prudente Airport (SBDN)
Time Latitude Longitude Altitude Speed Heading
2026-04-25 22:18 -15.86607 -47.90497 3482 ft 0 kts 265°
2026-04-25 22:26 -15.86607 -47.90500 3482 ft 1 kts 265°
2026-04-25 22:26 -15.86608 -47.90510 3479 ft 2 kts 265°
2026-04-25 22:27 -15.86593 -47.90546 3478 ft 9 kts 317°
2026-04-25 22:27 -15.86556 -47.90593 3482 ft 9 kts 275°
2026-04-25 22:27 -15.86531 -47.90691 3481 ft 18 kts 316°
2026-04-25 22:27 -15.86424 -47.90740 3483 ft 17 kts 279°
2026-04-25 22:28 -15.86431 -47.90893 3481 ft 28 kts 267°
2026-04-25 22:28 -15.86449 -47.91154 3479 ft 39 kts 266°
2026-04-25 22:28 -15.86467 -47.91441 3466 ft 40 kts 265°
2026-04-25 22:28 -15.86485 -47.91729 3467 ft 39 kts 266°
2026-04-25 22:29 -15.86501 -47.91945 3467 ft 24 kts 266°
2026-04-25 22:29 -15.86511 -47.92127 3466 ft 28 kts 266°
2026-04-25 22:29 -15.86525 -47.92351 3472 ft 33 kts 266°
2026-04-25 22:30 -15.86522 -47.92764 3459 ft 2 kts 354°
2026-04-25 22:30 -15.86475 -47.92767 3457 ft 1 kts 356°
2026-04-25 22:31 -15.86432 -47.92768 3458 ft 14 kts
2026-04-25 22:31 -15.86353 -47.92692 3457 ft 12 kts 84°
2026-04-25 22:31 -15.86352 -47.92678 3457 ft 0 kts 84°
2026-04-25 22:31 -15.86352 -47.92677 3457 ft 0 kts 84°
2026-04-25 22:32 -15.86345 -47.92607 3459 ft 38 kts 85°
2026-04-25 22:32 -15.86309 -47.92070 3467 ft 110 kts 85°
2026-04-25 22:32 -15.86246 -47.91037 3477 ft 174 kts 88°
2026-04-25 22:32 -15.86183 -47.89673 4026 ft 201 kts 88°
2026-04-25 22:33 -15.86383 -47.88169 4590 ft 231 kts 113°
2026-04-25 22:33 -15.87461 -47.86932 5598 ft 235 kts 146°
2026-04-25 22:33 -15.88969 -47.86243 6672 ft 246 kts 167°
2026-04-25 22:33 -15.90820 -47.86181 7108 ft 291 kts 195°
2026-04-25 22:34 -15.92469 -47.87305 8534 ft 288 kts 228°
2026-04-25 22:34 -15.93383 -47.89147 9850 ft 290 kts 261°
2026-04-25 22:34 -15.93568 -47.91280 10660 ft 314 kts 261°
2026-04-25 22:34 -15.94509 -47.93465 10911 ft 353 kts 230°
2026-04-25 22:35 -15.96484 -47.94917 12238 ft 353 kts 203°
2026-04-25 22:35 -16.04091 -47.94936 15470 ft 370 kts 179°
2026-04-25 22:36 -16.05836 -47.94977 16081 ft 375 kts 184°
2026-04-25 22:36 -16.09271 -47.95589 17261 ft 383 kts 195°
2026-04-25 22:36 -16.11012 -47.96111 17842 ft 387 kts 196°
2026-04-25 22:36 -16.13578 -47.97028 18650 ft 393 kts 202°
2026-04-25 22:37 -16.16048 -47.98293 19350 ft 399 kts 209°
2026-04-25 22:37 -16.18430 -47.99807 20069 ft 404 kts 212°
2026-04-25 22:37 -16.20795 -48.01422 20761 ft 409 kts 213°
2026-04-25 22:37 -16.23147 -48.03056 21442 ft 414 kts 213°
2026-04-25 22:38 -16.25589 -48.04753 22099 ft 419 kts 213°
2026-04-25 22:38 -16.27996 -48.06424 22755 ft 424 kts 213°
2026-04-25 22:38 -16.30464 -48.08135 23395 ft 428 kts 213°
2026-04-25 22:38 -16.32992 -48.09886 23957 ft 432 kts 213°
2026-04-25 22:39 -16.35466 -48.11601 24509 ft 435 kts 213°
2026-04-25 22:39 -16.37993 -48.13352 25046 ft 438 kts 213°
2026-04-25 22:39 -16.40538 -48.15117 25568 ft 441 kts 213°
2026-04-25 22:39 -16.43103 -48.16897 26075 ft 444 kts 213°
2026-04-25 22:40 -16.45676 -48.18681 26570 ft 447 kts 213°
2026-04-25 22:40 -16.48273 -48.20483 27046 ft 450 kts 213°
2026-04-25 22:40 -16.50884 -48.22296 27512 ft 452 kts 212°
2026-04-25 22:40 -16.53510 -48.24120 27973 ft 455 kts 212°
2026-04-25 22:41 -16.56151 -48.25956 28414 ft 458 kts 212°
2026-04-25 22:41 -16.58815 -48.27807 28836 ft 460 kts 212°
2026-04-25 22:41 -16.61477 -48.29658 29372 ft 460 kts 212°
2026-04-25 22:41 -16.64126 -48.31501 30025 ft 457 kts 212°
2026-04-25 22:42 -16.66740 -48.33320 30456 ft 457 kts 212°
2026-04-25 22:42 -16.69381 -48.35158 30909 ft 456 kts 212°
2026-04-25 22:42 -16.72057 -48.37022 31330 ft 456 kts 212°
2026-04-25 22:42 -16.74652 -48.38828 31775 ft 455 kts 212°
2026-04-25 22:43 -16.77289 -48.40665 32187 ft 454 kts 212°
2026-04-25 22:43 -16.79916 -48.42496 32599 ft 454 kts 212°
2026-04-25 22:43 -16.82544 -48.44328 32977 ft 454 kts 213°
2026-04-25 22:43 -16.85167 -48.46158 33389 ft 453 kts 213°
2026-04-25 22:44 -16.87789 -48.47987 33765 ft 453 kts 213°
2026-04-25 22:44 -16.90408 -48.49815 34134 ft 453 kts 213°
2026-04-25 22:44 -16.93023 -48.51640 34483 ft 451 kts 213°
2026-04-25 22:44 -16.95630 -48.53461 34844 ft 450 kts 213°
2026-04-25 22:45 -16.98235 -48.55280 35151 ft 450 kts 213°
2026-04-25 22:45 -17.00834 -48.57096 35470 ft 449 kts 213°
2026-04-25 22:45 -17.03422 -48.58906 35843 ft 447 kts 213°
2026-04-25 22:45 -17.06005 -48.60713 36114 ft 447 kts 213°
2026-04-25 22:46 -17.08584 -48.62517 36461 ft 445 kts 213°
2026-04-25 22:46 -17.11160 -48.64319 36778 ft 444 kts 213°
2026-04-25 22:46 -17.13731 -48.66118 37072 ft 443 kts 213°
2026-04-25 22:46 -17.16247 -48.67880 37382 ft 442 kts 213°
2026-04-25 22:47 -17.18808 -48.69674 37666 ft 442 kts 213°
2026-04-25 22:47 -17.21366 -48.71464 37800 ft 445 kts 211°
2026-04-25 22:47 -17.26873 -48.74563 37854 ft 454 kts 206°
2026-04-25 22:48 -17.32563 -48.77598 37967 ft 463 kts 206°
2026-04-25 22:48 -17.38360 -48.80713 38002 ft 471 kts 206°
2026-04-25 22:49 -17.41237 -48.82263 37976 ft 459 kts 206°
2026-04-25 22:49 -17.44052 -48.83781 37957 ft 451 kts 206°
2026-04-25 22:49 -17.49576 -48.86758 37940 ft 449 kts 206°
2026-04-25 22:50 -17.55148 -48.89763 37946 ft 450 kts 206°
2026-04-25 22:50 -17.60719 -48.92769 37948 ft 449 kts 206°
2026-04-25 22:51 -17.66271 -48.95768 37954 ft 449 kts 206°
2026-04-25 22:51 -17.71789 -48.98751 37958 ft 449 kts 206°
2026-04-25 22:52 -17.77347 -49.01728 37963 ft 448 kts 206°
2026-04-25 22:52 -17.82013 -49.04196 37969 ft 448 kts 206°
2026-04-25 22:53 -17.88489 -49.07632 37965 ft 448 kts 206°
2026-04-25 22:53 -17.94051 -49.10590 37972 ft 447 kts 206°
2026-04-25 22:54 -17.99604 -49.13546 37968 ft 447 kts 206°
2026-04-25 22:54 -18.05122 -49.16484 37968 ft 447 kts 206°
2026-04-25 22:55 -18.10672 -49.19441 37965 ft 446 kts 206°
2026-04-25 22:55 -18.16203 -49.22421 37962 ft 446 kts 207°
2026-04-25 22:56 -18.21719 -49.25407 37961 ft 446 kts 207°
2026-04-25 22:56 -18.27238 -49.28390 37962 ft 446 kts 207°
2026-04-25 22:57 -18.32719 -49.31355 37964 ft 445 kts 207°
2026-04-25 22:57 -18.38220 -49.34333 37962 ft 445 kts 207°
2026-04-25 22:58 -18.43734 -49.37320 37957 ft 445 kts 207°
2026-04-25 22:58 -18.49242 -49.40306 37954 ft 445 kts 207°
2026-04-25 22:59 -18.54752 -49.43295 37954 ft 445 kts 207°
2026-04-25 22:59 -18.60261 -49.46285 37958 ft 445 kts 207°
2026-04-25 23:00 -18.65771 -49.49278 37950 ft 445 kts 207°
2026-04-25 23:00 -18.71279 -49.52273 37953 ft 445 kts 207°
2026-04-25 23:01 -18.76787 -49.55270 37959 ft 445 kts 207°
2026-04-25 23:01 -18.82247 -49.58243 37958 ft 444 kts 207°
2026-04-25 23:02 -18.87737 -49.61249 37961 ft 445 kts 207°
2026-04-25 23:02 -18.93226 -49.64264 37966 ft 445 kts 207°
2026-04-25 23:03 -18.98715 -49.67279 37952 ft 444 kts 207°
2026-04-25 23:03 -19.04199 -49.70293 37955 ft 444 kts 207°
2026-04-25 23:04 -19.08802 -49.72823 37959 ft 444 kts 207°
2026-04-25 23:04 -19.15165 -49.76325 37958 ft 444 kts 208°
2026-04-25 23:05 -19.20642 -49.79341 37959 ft 444 kts 208°
2026-04-25 23:05 -19.26117 -49.82359 37956 ft 443 kts 208°
2026-04-25 23:06 -19.31587 -49.85376 37956 ft 443 kts 208°
2026-04-25 23:06 -19.37043 -49.88370 37955 ft 443 kts 207°
2026-04-25 23:07 -19.42551 -49.91302 37953 ft 443 kts 207°
2026-04-25 23:07 -19.48051 -49.94241 37952 ft 443 kts 207°
2026-04-25 23:08 -19.53551 -49.97189 37948 ft 442 kts 207°
2026-04-25 23:08 -19.59010 -50.00119 37950 ft 441 kts 208°
2026-04-25 23:09 -19.64504 -50.03069 37949 ft 441 kts 208°
2026-04-25 23:09 -19.69979 -50.06011 37946 ft 441 kts 208°
2026-04-25 23:10 -19.75455 -50.08956 37949 ft 441 kts 208°
2026-04-25 23:10 -19.80890 -50.11882 37943 ft 440 kts 208°
2026-04-25 23:11 -19.86357 -50.14828 37944 ft 440 kts 208°
2026-04-25 23:11 -19.91813 -50.17768 37948 ft 440 kts 208°
2026-04-25 23:12 -19.97269 -50.20712 37946 ft 439 kts 208°
2026-04-25 23:12 -20.02714 -50.23653 37948 ft 439 kts 208°
2026-04-25 23:13 -20.08163 -50.26603 37950 ft 439 kts 208°
2026-04-25 23:13 -20.13609 -50.29554 37946 ft 438 kts 208°
2026-04-25 23:14 -20.19010 -50.32492 37946 ft 438 kts 209°
2026-04-25 23:14 -20.24440 -50.35448 37951 ft 438 kts 209°
2026-04-25 23:15 -20.29873 -50.38408 37944 ft 438 kts 209°
2026-04-25 23:15 -20.35298 -50.41364 37945 ft 437 kts 209°
2026-04-25 23:16 -20.40717 -50.44321 37944 ft 437 kts 209°
2026-04-25 23:16 -20.46130 -50.47275 37945 ft 437 kts 209°
2026-04-25 23:17 -20.51540 -50.50231 37942 ft 437 kts 209°
2026-04-25 23:17 -20.56947 -50.53188 37940 ft 436 kts 209°
2026-04-25 23:18 -20.62349 -50.56144 37937 ft 436 kts 209°
2026-04-25 23:18 -20.67711 -50.59080 37854 ft 430 kts 209°
2026-04-25 23:19 -20.70346 -50.60522 37286 ft 424 kts 209°
2026-04-25 23:19 -20.72985 -50.61971 36414 ft 427 kts 209°
2026-04-25 23:19 -20.75640 -50.63428 35480 ft 431 kts 209°
2026-04-25 23:19 -20.78246 -50.64854 35460 ft 413 kts 209°
2026-04-25 23:20 -20.80790 -50.66269 35164 ft 414 kts 210°
2026-04-25 23:20 -20.83374 -50.67741 34971 ft 425 kts 210°
2026-04-25 23:20 -20.86009 -50.69243 34728 ft 432 kts 210°
2026-04-25 23:20 -20.88670 -50.70753 34504 ft 433 kts 210°
2026-04-25 23:21 -20.91344 -50.72267 34270 ft 434 kts 210°
2026-04-25 23:21 -20.94019 -50.73781 33896 ft 435 kts 210°
2026-04-25 23:21 -20.96693 -50.75295 33043 ft 435 kts 210°
2026-04-25 23:21 -20.99377 -50.76816 32017 ft 438 kts 210°
2026-04-25 23:22 -21.02083 -50.78349 31007 ft 442 kts 210°
2026-04-25 23:22 -21.04770 -50.79873 30054 ft 444 kts 210°
2026-04-25 23:22 -21.07507 -50.81427 28848 ft 447 kts 210°
2026-04-25 23:23 -21.12940 -50.84508 27753 ft 428 kts 210°
2026-04-25 23:23 -21.14715 -50.85517 27725 ft 428 kts 210°
2026-04-25 23:23 -21.18271 -50.87549 27064 ft 442 kts 210°
2026-04-25 23:23 -21.20064 -50.88570 26678 ft 439 kts 210°
2026-04-25 23:24 -21.23652 -50.90614 25841 ft 432 kts 210°
2026-04-25 23:24 -21.25406 -50.91615 25437 ft 429 kts 210°
2026-04-25 23:24 -21.28023 -50.93106 24878 ft 424 kts 210°
2026-04-25 23:24 -21.30624 -50.94584 24319 ft 420 kts 210°
2026-04-25 23:25 -21.33198 -50.96048 23773 ft 417 kts 210°
2026-04-25 23:25 -21.35756 -50.97503 23168 ft 414 kts 210°
2026-04-25 23:25 -21.38290 -50.98944 22668 ft 409 kts 210°
2026-04-25 23:25 -21.40802 -51.00374 22113 ft 407 kts 210°
2026-04-25 23:26 -21.43294 -51.01794 21570 ft 404 kts 210°
2026-04-25 23:26 -21.45768 -51.03205 21047 ft 401 kts 210°
2026-04-25 23:26 -21.48222 -51.04603 20514 ft 397 kts 210°
2026-04-25 23:26 -21.50621 -51.05974 19999 ft 394 kts 210°
2026-04-25 23:27 -21.53041 -51.07353 19476 ft 391 kts 210°
2026-04-25 23:27 -21.55436 -51.08720 18957 ft 388 kts 210°
2026-04-25 23:27 -21.57821 -51.10077 18438 ft 386 kts 210°
2026-04-25 23:27 -21.60194 -51.11402 17899 ft 383 kts 209°
2026-04-25 23:28 -21.62540 -51.12709 17432 ft 378 kts 209°
2026-04-25 23:28 -21.64874 -51.14015 16908 ft 376 kts 209°
2026-04-25 23:28 -21.67188 -51.15310 16420 ft 374 kts 209°
2026-04-25 23:28 -21.69464 -51.16585 15927 ft 372 kts 209°
2026-04-25 23:29 -21.71780 -51.17885 15429 ft 369 kts 209°
2026-04-25 23:29 -21.73972 -51.19292 14920 ft 365 kts 217°
2026-04-25 23:29 -21.75863 -51.21034 14469 ft 361 kts 225°
2026-04-25 23:29 -21.77628 -51.22937 13983 ft 357 kts 226°
2026-04-25 23:30 -21.79379 -51.24824 13490 ft 352 kts 225°
2026-04-25 23:30 -21.81125 -51.26650 13060 ft 346 kts 224°
2026-04-25 23:30 -21.82868 -51.28441 12583 ft 347 kts 224°
2026-04-25 23:30 -21.84624 -51.30232 12210 ft 346 kts 224°
2026-04-25 23:31 -21.86360 -51.31999 11732 ft 341 kts 224°
2026-04-25 23:31 -21.88063 -51.33736 11288 ft 333 kts 224°
2026-04-25 23:31 -21.89728 -51.35433 10851 ft 326 kts 224°
2026-04-25 23:31 -21.91341 -51.37078 10425 ft 320 kts 224°
2026-04-25 23:32 -21.92964 -51.38735 10005 ft 315 kts 224°
2026-04-25 23:32 -21.94520 -51.40323 9579 ft 310 kts 224°
2026-04-25 23:32 -21.96067 -51.41903 9203 ft 303 kts 224°
2026-04-25 23:32 -21.97584 -51.43454 8794 ft 298 kts 224°
2026-04-25 23:33 -21.99082 -51.44985 8400 ft 294 kts 224°
2026-04-25 23:33 -22.00556 -51.46492 8025 ft 290 kts 224°
2026-04-25 23:33 -22.02014 -51.47983 7632 ft 287 kts 224°
2026-04-25 23:33 -22.03455 -51.49456 7254 ft 284 kts 224°
2026-04-25 23:34 -22.04879 -51.50913 6895 ft 279 kts 224°
2026-04-25 23:34 -22.06259 -51.52326 6591 ft 267 kts 224°
2026-04-25 23:34 -22.07579 -51.53678 6184 ft 257 kts 224°
2026-04-25 23:34 -22.08854 -51.54982 5796 ft 248 kts 224°
2026-04-25 23:35 -22.10085 -51.56242 5476 ft 239 kts 224°
2026-04-25 23:35 -22.11268 -51.57452 5170 ft 231 kts 224°
2026-04-25 23:35 -22.12411 -51.58621 4876 ft 221 kts 224°
2026-04-25 23:35 -22.13549 -51.59631 4576 ft 208 kts 207°
2026-04-25 23:36 -22.14905 -51.59775 4268 ft 197 kts 163°
2026-04-25 23:36 -22.15888 -51.58905 4041 ft 178 kts 115°
2026-04-25 23:36 -22.16046 -51.57670 3873 ft 159 kts 82°
2026-04-25 23:36 -22.15866 -51.56575 3825 ft 141 kts 80°
2026-04-25 23:37 -22.15768 -51.55514 3651 ft 143 kts 88°
2026-04-25 23:37 -22.15817 -51.54440 3445 ft 143 kts 96°
2026-04-25 23:37 -22.15950 -51.53383 3251 ft 142 kts 98°
2026-04-25 23:37 -22.16108 -51.52331 3050 ft 141 kts 99°
2026-04-25 23:38 -22.16261 -51.51289 2871 ft 140 kts 99°
2026-04-25 23:38 -22.16411 -51.50243 2676 ft 141 kts 99°
2026-04-25 23:38 -22.16560 -51.49201 2467 ft 140 kts 98°
2026-04-25 23:38 -22.16704 -51.48162 2284 ft 140 kts 99°
2026-04-25 23:39 -22.16845 -51.47148 2085 ft 137 kts 99°
2026-04-25 23:39 -22.16988 -51.46139 1890 ft 134 kts 99°
2026-04-25 23:39 -22.17128 -51.45151 1711 ft 132 kts 99°
2026-04-25 23:39 -22.17264 -51.44167 1518 ft 133 kts 99°
2026-04-25 23:40 -22.17398 -51.43206 1442 ft 122 kts 99°
2026-04-25 23:40 -22.17495 -51.42521 1472 ft 52 kts 99°
2026-04-25 23:40 -22.17557 -51.42245 1482 ft 17 kts 141°
2026-04-25 23:40 -22.17585 -51.42218 1488 ft 0 kts 139°
2026-04-25 23:41 -22.17587 -51.42217 1488 ft 1 kts 139°
2026-04-25 23:41 -22.17599 -51.42206 1482 ft 3 kts 140°
2026-04-25 23:41 -22.17621 -51.42186 1483 ft 5 kts 140°
2026-04-25 23:42 -22.17653 -51.42156 1488 ft 7 kts 137°
2026-04-25 23:42 -22.17692 -51.42116 1484 ft 9 kts 134°
2026-04-25 23:42 -22.17714 -51.42053 1488 ft 10 kts 98°
2026-04-25 23:42 -22.17723 -51.41976 1488 ft 11 kts 97°
2026-04-25 23:43 -22.17725 -51.41887 1484 ft 13 kts 91°
2026-04-25 23:43 -22.17733 -51.41825 1488 ft 0 kts 99°
2026-04-25 23:43 -22.17736 -51.41824 1488 ft 1 kts 127°
2026-04-25 23:44 -22.17742 -51.41828 1479 ft 0 kts 207°
2026-04-25 23:44 -22.17751 -51.41840 1476 ft 4 kts 210°
2026-04-25 23:44 -22.17771 -51.41827 1482 ft 4 kts 140°
2026-04-25 23:44 -22.17776 -51.41823 1485 ft 0 kts 141°